Wind_Speed
18 20 22 21 20 20 19 21 22 20 20 21 20 21 21 18 15 14 14 13 13 13 14 15 16 16 15 15 16 16 16 17 16 15 14 13 13 12 10 9 9 9 9 9 8 8 7 8 9 8 8 7 7 7 7 7 7 8 8 9 9 9 11
17 19 21 21 20 20 20 21 23 22 20 20 20 21 22 20 17 15 13 13 13 13 14 15 16 16 15 15 15 16 17 17 17 16 15 15 14 13 12 11 10 9 9 9 9 9 8 8 8 8 8 8 7 7 7 8 8 8 8 8 9 8 9
14 17 21 23 23 22 22 22 24 23 21 21 21 21 22 22 20 16 14 14 14 14 14 14 15 16 16 16 16 16 17 17 18 17 16 15 15 14 14 12 11 10 10 10 10 10 9 8 8 8 8 8 8 8 7 7 8 9 8 8 8 8 9
11 14 19 23 24 23 23 23 24 24 21 21 23 23 22 23 21 18 16 16 16 15 15 15 15 16 16 17 17 16 17 18 18 17 17 17 16 15 15 14 13 11 11 10 10 10 10 10 9 9 9 9 8 8 7 8 8 8 8 8 8 8 9
10 10 14 21 24 24 24 24 24 23 20 20 22 22 22 21 20 19 17 17 17 16 16 16 16 16 17 18 18 17 17 17 18 18 18 18 18 17 16 15 14 13 12 12 11 11 10 10 10 10 10 10 9 9 8 8 8 8 8 8 8 9 9
14 9 9 16 22 23 24 25 24 22 20 20 20 20 20 19 19 20 19 18 18 17 18 18 17 17 17 17 18 18 18 17 17 18 19 19 19 18 17 16 15 15 14 13 13 12 11 10 10 10 11 11 10 10 9 8 8 8 8 8 8 9 9
19 16 12 13 20 23 23 24 24 23 21 21 21 20 20 21 20 20 20 19 18 18 19 18 18 18 17 17 18 19 19 18 17 18 19 20 20 19 18 17 17 17 16 15 14 13 12 11 10 10 11 12 12 11 11 10 9 9 9 8 8 8 9
25 23 19 18 22 25 25 23 23 25 26 25 24 21 21 22 21 21 22 21 20 20 20 19 19 19 17 17 19 19 19 19 18 18 18 20 20 20 19 19 18 18 18 17 16 14 13 12 11 11 11 11 12 12 12 11 11 10 9 9 8 8 9
22 25 24 23 23 26 28 24 21 24 29 28 25 24 23 23 23 23 23 23 23 23 22 22 22 22 21 20 19 19 20 20 20 19 18 19 20 20 20 20 19 19 19 18 17 16 15 14 13 12 12 12 12 12 12 12 12 11 10 10 9 9 9
13 17 22 24 24 27 30 28 23 23 26 26 25 25 24 23 23 24 24 24 25 26 25 25 26 24 23 22 21 20 20 20 20 20 20 19 19 19 20 21 21 20 20 19 18 17 17 16 15 14 13 13 12 12 13 12 12 11 11 11 10 10 10
11 10 13 17 21 23 26 29 26 23 23 23 23 24 23 23 24 24 25 25 26 26 26 26 26 25 23 23 23 23 22 20 20 20 21 21 20 19 19 20 21 21 21 20 19 19 18 17 17 16 15 14 13 12 13 13 13 12 12 12 11 11 11
11 11 9 9 12 16 19 24 27 25 24 23 24 24 23 24 25 25 26 26 26 26 25 24 24 24 24 24 26 26 24 22 22 21 20 21 21 20 20 20 21 21 22 22 21 21 20 19 18 17 16 15 14 14 13 14 14 13 13 13 13 12 12
10 12 11 9 8 10 14 19 24 26 26 26 26 26 26 27 28 28 29 28 27 26 25 24 24 24 24 25 26 26 25 25 25 23 21 21 21 21 21 22 22 22 22 21 21 23 23 22 20 18 17 16 15 15 15 15 15 15 14 14 14 14 14
10 12 12 11 10 9 12 17 22 26 28 29 29 28 28 29 29 29 30 28 25 24 23 23 23 23 23 24 26 26 26 28 29 29 27 24 22 21 22 23 23 23 23 21 21 22 23 23 22 20 19 17 16 16 16 16 16 16 16 15 15 15 14
9 11 12 11 11 10 9 15 20 24 27 28 30 29 27 27 26 26 26 25 23 22 22 22 22 23 22 23 25 27 28 30 30 30 29 26 25 24 23 23 23 24 25 24 22 21 21 22 22 22 21 19 18 18 17 17 17 17 17 16 16 16 15
8 10 11 10 11 12 11 11 15 20 24 26 27 27 26 24 24 24 25 24 22 21 22 23 23 23 23 23 24 26 28 31 31 31 30 28 28 28 27 26 24 23 24 26 25 24 22 21 22 22 22 20 20 20 19 19 19 18 17 16 16 16 15
9 11 12 11 10 11 12 12 12 14 17 20 23 23 23 23 23 23 24 24 22 21 21 22 22 23 24 26 25 24 25 28 30 31 29 27 28 29 30 31 30 27 26 26 26 26 25 23 22 22 22 21 20 19 20 21 21 20 18 17 17 17 17
8 12 13 13 12 10 11 12 12 11 10 11 13 14 16 17 18 19 20 21 20 20 21 21 21 23 24 26 26 24 25 26 28 30 29 27 28 29 31 33 32 31 33 30 27 27 26 25 24 23 23 23 22 21 20 20 21 22 20 18 18 19 19
8 13 13 13 13 11 11 11 10 10 9 8 8 8 9 11 13 16 18 19 20 20 21 21 21 22 24 25 26 25 26 27 28 30 31 31 30 30 31 33 33 32 32 32 32 31 28 25 25 24 23 23 24 23 21 20 21 22 22 20 19 19 21
9 15 14 12 13 12 11 11 10 9 8 7 8 8 8 8 9 11 13 16 17 19 20 20 20 20 22 26 28 28 27 28 28 30 32 31 31 31 31 31 31 31 32 30 29 29 28 26 25 25 24 24 24 24 23 23 22 22 22 22 21 21 21
8 15 14 12 13 12 11 11 10 9 9 7 7 7 6 6 6 6 7 8 10 12 14 16 17 18 20 23 26 28 29 29 30 31 32 31 31 31 32 32 31 31 31 31 30 29 29 29 28 27 26 26 26 25 24 24 24 24 22 21 21 22 23
9 14 14 13 12 11 11 11 10 10 9 9 8 7 6 6 6 5 5 5 5 6 8 9 12 15 17 19 22 24 26 28 30 30 30 30 30 31 32 33 33 32 31 31 31 31 32 32 30 29 29 29 29 28 28 27 26 26 24 22 21 21 22
10 13 13 12 13 11 11 11 10 11 11 10 10 9 8 7 6 6 6 5 5 5 5 6 7 9 11 14 16 18 21 24 27 29 29 30 29 30 31 32 32 32 31 30 30 31 31 31 31 31 31 30 30 31 31 30 29 29 28 27 25 23 23
11 13 12 12 14 12 12 13 12 12 12 11 11 11 10 10 9 8 8 8 7 7 6 6 6 6 7 8 10 13 16 19 22 26 28 29 30 31 31 30 31 31 31 30 30 31 31 31 32 32 32 32 32 32 31 29 29 29 29 29 29 29 27
13 11 10 13 14 12 12 15 14 14 15 14 13 13 13 13 12 11 11 11 11 10 9 9 9 8 8 8 8 9 11 14 16 20 24 27 29 31 31 31 31 31 31 32 33 34 33 33 34 34 34 34 33 33 32 31 29 29 28 28 28 28 28
16 13 12 15 14 12 14 16 16 16 18 17 16 17 17 15 15 15 15 15 14 14 13 12 12 11 11 12 11 11 11 12 12 14 17 20 24 27 29 31 31 32 33 34 35 35 34 33 34 34 34 35 35 34 33 33 31 30 28 27 27 27 27
14 14 15 17 16 15 16 18 16 17 20 19 18 19 19 18 18 18 18 18 18 18 17 16 15 15 14 15 15 14 14 14 13 13 12 14 17 20 23 27 30 32 33 35 36 36 36 35 35 34 34 35 36 35 35 34 33 31 31 29 27 27 28
19 21 19 18 18 20 21 19 17 19 21 20 20 20 20 19 20 20 20 21 21 21 20 20 20 19 18 17 17 17 17 17 16 15 14 13 13 13 14 18 22 25 29 32 34 37 38 38 36 35 35 35 36 36 35 34 32 32 32 32 30 29 28
26 25 22 20 21 23 23 21 21 21 22 21 22 22 21 21 21 21 21 22 23 23 23 23 23 22 22 21 21 20 20 20 19 18 18 17 16 14 13 12 12 14 18 23 27 31 35 37 37 36 35 35 36 36 36 35 34 32 32 32 32 31 30
27 25 24 25 26 26 24 23 23 24 23 23 24 24 24 24 23 23 23 23 23 24 24 25 25 25 24 24 24 23 23 23 22 21 20 19 19 18 16 13 11 10 10 13 18 23 28 32 36 36 35 35 35 35 35 35 35 33 31 31 31 31 30
26 26 26 26 27 26 24 23 23 23 24 24 25 25 25 25 25 25 25 25 25 25 25 26 26 26 26 26 26 26 25 25 25 25 23 21 20 20 18 16 14 11 9 9 13 17 22 27 32 34 35 35 36 36 35 35 35 35 33 31 31 30 30
24 26 27 28 28 27 26 24 23 24 24 24 24 25 25 25 25 26 26 26 26 25 26 27 27 27 27 27 27 27 27 27 28 28 27 25 23 22 21 19 17 15 13 11 11 13 16 21 26 30 34 36 37 37 36 35 35 36 35 33 32 31 30
23 24 26 28 29 29 29 28 28 26 25 24 25 25 25 25 26 26 26 26 26 26 27 28 28 28 29 28 28 27 27 29 30 30 30 29 27 25 25 23 21 19 17 15 13 12 13 16 20 25 29 34 37 38 37 36 35 35 36 35 35 34 32
20 20 22 23 25 27 29 31 31 30 28 26 25 25 25 26 26 27 27 28 28 28 28 28 29 30 30 31 30 27 26 28 31 32 31 31 29 28 27 26 25 23 22 20 18 16 15 15 18 21 25 29 33 36 36 35 35 35 36 36 36 36 35
18 18 18 19 20 22 24 27 29 28 27 25 24 23 23 23 24 26 27 28 29 29 29 29 30 31 32 33 33 30 27 28 31 32 32 31 31 30 29 28 27 26 25 25 24 22 19 17 18 19 22 25 28 32 34 35 35 36 36 34 34 36 37
18 18 18 19 19 20 21 22 23 24 24 23 21 20 20 20 20 21 22 24 26 28 29 30 30 31 32 33 34 33 32 31 30 30 30 31 32 31 30 29 28 28 28 27 27 26 24 22 20 21 21 22 25 29 33 35 36 37 37 34 33 35 38
19 18 18 19 19 20 21 21 21 22 23 22 22 21 20 20 19 19 19 20 22 23 25 27 28 29 31 32 34 35 35 33 31 29 29 30 31 32 31 29 28 29 29 29 29 29 28 26 25 24 23 23 24 27 30 34 37 39 39 36 35 35 37
19 18 18 19 19 20 21 21 21 22 23 23 24 24 23 22 22 21 20 21 21 22 22 24 26 27 29 30 32 34 35 34 32 31 30 30 31 32 33 31 29 28 28 29 30 30 30 29 28 28 27 26 25 26 28 31 35 38 39 40 39 38 37
Wind_Direction
195 199 197 197 196 196 195 198 207 211 213 215 207 201 207 216 223 216 210 214 211 208 212 212 213 217 218 217 217 215 213 212 209 207 206 201 198 196 192 195 200 202 200 201 203 200 195 193 190 185 183 189 193 195 200 202 202 201 202 204 204 207 206
195 198 196 198 199 199 198 196 201 207 209 212 213 208 205 210 218 219 212 213 215 211 211 215 216 217 219 219 220 218 217 216 213 210 208 206 203 200 198 199 202 203 205 208 206 206 207 204 201 193 186 194 202 201 202 204 208 209 211 211 206 209 211
190 191 193 198 200 201 199 195 196 202 205 207 214 212 206 207 213 219 216 208 213 217 213 216 218 219 220 221 222 222 220 218 216 214 211 207 206 205 203 203 204 204 206 212 209 207 211 212 213 210 199 200 205 205 206 206 211 212 212 215 210 209 211
184 188 192 197 201 200 196 196 199 202 203 206 213 213 207 207 209 215 217 208 210 218 218 219 221 221 221 222 223 224 224 222 218 216 214 211 208 209 209 207 208 209 208 213 214 210 211 213 216 219 212 209 210 209 209 209 211 212 212 216 210 209 212
169 191 195 194 200 199 194 197 201 204 205 204 211 213 208 207 208 211 215 211 209 215 219 219 220 222 223 223 225 225 225 226 222 218 217 215 213 213 214 214 214 216 213 214 217 215 215 214 216 220 218 215 215 213 214 215 214 210 211 215 211 213 216
150 165 187 192 199 202 201 201 201 203 205 205 211 214 211 209 209 209 213 213 209 211 215 214 214 219 221 222 226 227 227 228 224 221 220 218 217 217 218 219 219 221 220 218 220 219 218 218 218 220 220 219 219 217 217 219 219 216 214 212 211 213 217
160 149 148 175 194 199 202 205 206 203 201 204 207 208 210 212 212 209 211 213 211 211 213 210 208 214 219 221 224 226 229 230 227 224 223 222 221 220 221 223 223 224 225 224 225 225 222 223 224 223 223 222 222 221 221 220 220 222 222 215 211 212 218
177 166 153 157 178 193 201 206 208 203 199 201 202 202 206 211 214 214 212 212 213 214 213 210 207 209 214 219 223 225 225 228 230 229 227 225 223 221 222 224 225 226 228 229 230 231 228 226 226 227 229 230 226 224 224 224 223 225 226 222 218 219 223
180 184 178 171 175 186 194 198 201 200 199 199 198 199 203 208 214 217 218 217 216 216 215 214 212 211 211 212 217 224 225 225 229 231 231 231 228 225 224 224 225 227 230 232 233 234 233 232 230 228 230 232 232 231 227 225 226 228 228 226 226 226 227
158 181 189 193 196 194 191 192 194 197 200 201 201 203 205 210 215 218 221 223 222 222 221 219 219 219 219 214 211 217 222 223 227 230 233 235 233 231 228 227 227 227 230 234 235 237 236 236 235 232 232 233 232 233 233 230 229 230 231 230 231 233 234
136 152 176 195 208 208 201 198 195 193 196 200 204 210 210 211 216 221 224 225 223 225 226 225 226 228 228 223 217 218 219 219 223 228 232 236 238 237 234 233 232 230 230 232 234 238 238 238 238 235 233 235 234 233 234 235 235 235 235 235 235 235 236
124 131 144 170 197 207 207 204 203 200 200 201 203 209 211 210 214 219 225 226 222 221 222 225 229 231 230 228 225 222 219 217 219 222 228 235 239 239 238 237 237 235 232 231 232 237 238 237 239 239 236 235 236 236 235 235 239 240 239 239 238 237 237
111 118 123 131 162 189 197 200 203 204 206 207 206 208 212 214 215 215 217 221 222 220 219 222 228 232 234 236 233 227 221 220 220 218 222 230 236 240 240 239 241 242 239 234 230 235 239 238 237 239 240 238 237 238 238 237 240 242 242 242 241 240 240
98 110 119 120 131 162 186 193 199 202 205 208 208 209 214 218 218 214 212 212 214 217 220 226 233 237 238 239 238 233 227 225 223 219 216 218 224 234 241 242 242 243 245 244 237 233 237 242 242 239 238 239 239 239 239 240 241 243 244 245 246 246 245
91 106 115 116 122 134 165 188 198 204 207 209 210 212 217 222 222 219 217 214 212 215 220 225 232 237 238 238 240 241 238 235 232 227 221 217 216 222 232 241 245 244 245 246 245 241 237 239 244 244 241 238 238 241 242 242 243 245 247 248 250 254 255
90 108 119 120 121 122 133 160 187 203 210 214 217 219 220 223 227 228 228 224 217 216 221 224 228 235 238 238 240 245 246 241 238 233 226 220 218 218 221 226 232 240 245 245 245 246 244 240 241 246 248 243 238 238 243 246 247 246 247 252 255 258 261
110 118 129 129 124 125 127 132 153 181 202 214 221 225 225 225 229 231 230 227 218 213 219 226 232 239 242 240 238 241 245 244 243 242 235 226 224 227 228 224 219 219 227 238 245 248 249 246 242 243 249 252 247 242 241 246 251 251 248 248 252 258 262
140 136 138 137 133 132 131 127 130 144 164 188 204 216 220 220 224 227 228 229 224 218 221 226 230 235 241 245 243 239 240 243 245 248 246 239 233 234 238 242 238 225 216 216 226 238 245 248 248 246 245 248 251 251 247 244 247 252 254 251 248 252 257
157 154 150 145 142 138 136 134 130 130 136 141 152 170 188 199 211 219 226 232 232 231 233 234 234 235 238 243 245 243 242 242 242 244 246 246 244 239 238 244 251 248 236 222 215 219 226 235 245 250 248 245 246 251 255 252 248 247 250 252 250 248 250
152 161 159 155 155 150 146 146 143 139 139 137 137 142 152 171 191 207 219 227 231 236 241 243 245 246 242 240 240 240 240 240 240 241 244 246 248 246 241 241 247 255 257 249 237 229 226 227 234 240 243 243 241 244 251 257 258 255 251 250 250 250 249
155 168 168 167 168 166 161 161 159 158 155 155 155 150 149 159 168 182 201 213 221 229 238 242 246 250 249 246 242 241 240 239 238 240 243 245 247 248 248 248 249 251 255 255 252 244 237 234 235 236 238 240 242 244 246 248 253 257 256 250 247 248 251
177 177 179 183 184 181 180 179 175 176 175 174 176 176 174 177 175 179 189 195 204 214 223 231 236 241 247 250 251 250 248 245 243 241 242 244 246 247 249 251 252 253 254 254 252 247 240 238 240 240 241 243 245 248 250 250 250 255 259 257 251 247 248
198 188 188 197 201 198 199 201 199 196 195 193 193 194 195 199 202 205 211 213 219 224 225 230 232 236 241 245 250 253 253 253 251 247 244 244 245 246 249 251 252 253 254 257 258 255 250 247 246 246 246 246 247 249 250 251 252 255 259 262 261 258 252
210 202 201 212 217 214 213 217 218 216 215 213 212 211 210 213 218 225 234 240 240 242 244 248 254 256 255 255 253 252 253 254 254 252 249 247 246 247 249 251 251 252 254 256 257 254 251 249 250 251 250 250 252 255 255 255 255 255 256 260 263 265 264
223 221 221 226 229 227 227 230 230 230 231 230 227 227 227 229 231 233 238 244 247 251 251 251 257 262 267 273 273 268 263 259 257 254 252 250 249 249 251 253 253 253 256 258 255 251 248 247 249 250 251 252 254 256 258 260 261 259 258 259 260 263 266
226 232 242 246 247 238 233 238 239 236 240 241 238 238 241 243 243 240 241 243 246 251 253 253 255 258 262 267 271 275 277 274 270 263 258 256 254 252 252 254 254 253 254 256 256 253 248 247 249 250 251 254 256 257 258 260 261 261 262 261 259 259 261
233 240 251 259 265 258 248 249 246 241 246 249 246 246 249 251 248 246 247 248 248 250 252 254 255 255 256 261 265 269 272 276 278 277 272 269 263 258 256 255 255 255 253 254 257 257 252 248 249 251 252 254 256 258 260 261 260 261 261 260 260 260 259
257 261 262 261 265 266 263 263 259 254 256 257 254 253 253 253 252 251 252 252 252 252 253 253 254 254 254 256 259 264 267 270 274 276 277 279 278 274 269 262 260 261 258 256 259 261 257 252 251 253 253 254 256 258 261 263 263 263 262 261 261 261 260
257 262 266 266 266 267 267 268 268 265 265 265 264 263 261 258 257 256 255 255 256 257 257 256 255 254 254 255 256 258 262 265 269 271 272 276 279 280 281 278 275 273 265 257 257 258 257 254 253 253 253 254 256 258 261 264 265 265 265 264 263 261 260
257 261 265 267 268 267 267 267 266 265 266 266 267 267 267 266 265 263 262 260 260 260 260 260 259 257 256 256 256 256 258 260 263 266 268 271 274 276 278 283 288 291 281 263 252 248 248 248 249 251 253 254 256 257 259 262 263 264 266 266 264 262 261
259 263 264 265 265 264 264 263 263 262 263 264 265 266 267 267 267 266 266 265 264 264 263 262 262 261 259 257 257 257 257 257 258 260 262 264 268 271 274 277 281 285 288 277 261 250 245 244 246 249 251 252 255 256 256 258 259 262 264 265 265 264 263
257 261 264 265 264 263 262 261 260 259 260 262 264 265 266 267 267 268 268 268 268 268 267 267 266 265 263 260 258 257 257 257 257 258 259 259 260 264 268 270 271 273 276 278 276 268 259 252 250 250 251 252 253 254 254 255 257 259 261 262 264 264 263
256 259 262 264 265 265 264 263 260 259 259 260 263 265 266 268 269 270 271 271 271 271 270 270 271 270 268 265 261 258 258 258 258 257 257 257 257 258 261 263 264 266 268 269 269 271 269 263 256 253 251 251 251 252 253 253 255 258 260 261 263 263 261
255 259 263 266 267 267 265 264 262 261 261 261 263 266 267 269 270 271 272 272 272 273 273 273 273 273 273 272 268 264 260 259 259 259 258 258 257 255 256 258 259 260 262 264 264 263 265 267 263 258 254 252 250 249 249 249 250 254 258 259 261 261 259
254 259 262 265 268 268 268 267 266 265 264 264 264 264 266 268 269 271 272 272 272 272 272 272 273 274 275 275 274 272 268 262 261 261 261 260 259 256 254 254 255 254 255 258 261 261 260 262 265 264 260 257 254 251 248 246 246 249 252 255 258 259 257
255 256 258 260 263 267 269 270 270 269 268 267 265 264 264 266 269 272 273 273 273 272 272 272 272 273 274 276 277 277 274 270 267 266 265 263 262 260 256 253 252 251 250 250 254 257 257 256 258 262 263 261 259 256 253 249 247 247 249 249 251 255 257
256 255 257 258 259 261 264 266 269 270 270 270 271 270 269 270 272 274 275 276 276 275 275 275 274 273 273 274 276 277 277 276 275 272 269 267 265 264 260 255 251 249 248 247 247 250 253 252 251 255 260 261 261 260 259 256 253 251 250 248 247 249 253
258 258 260 260 259 259 260 262 265 267 268 271 273 274 275 275 274 274 274 276 277 277 277 277 277 276 275 275 277 278 280 281 280 277 274 271 268 266 264 260 254 249 247 246 245 245 248 249 248 249 253 256 258 259 260 260 259 257 254 252 249 248 249
Height
3174 3175 3177 3179 3180 3182 3184 3186 3189 3192 3193 3195 3196 3196 3198 3200 3201 3201 3203 3204 3205 3207 3208 3209 3210 3212 3213 3214 3215 3217 3218 3219 3220 3221 3222 3223 3224 3225 3225 3226 3227 3228 3228 3229 3230 3231 3232 3232 3233 3234 3235 3236 3237 3238 3239 3240 3241 3241 3242 3243 3244 3244 3245
3172 3174 3176 3178 3179 3181 3182 3184 3188 3191 3192 3194 3196 3197 3197 3199 3201 3201 3203 3204 3205 3206 3208 3209 3210 3211 3212 3213 3214 3216 3217 3218 3219 3221 3222 3222 3223 3224 3225 3226 3227 3227 3228 3229 3230 3231 3231 3232 3233 3234 3235 3236 3237 3238 3239 3240 3241 3241 3242 3243 3243 3244 3245
3171 3172 3174 3176 3177 3179 3181 3183 3185 3187 3189 3191 3195 3197 3197 3198 3200 3201 3202 3203 3204 3205 3207 3208 3209 3210 3212 3213 3214 3215 3216 3217 3218 3220 3221 3222 3223 3224 3225 3225 3226 3227 3228 3229 3230 3231 3231 3232 3233 3234 3235 3236 3237 3238 3239 3240 3241 3241 3242 3243 3243 3244 3245
3170 3170 3171 3174 3176 3178 3181 3182 3183 3184 3187 3190 3193 3196 3196 3197 3199 3200 3201 3202 3203 3204 3206 3207 3208 3209 3211 3212 3213 3214 3215 3216 3218 3219 3221 3222 3223 3223 3224 3225 3226 3227 3228 3229 3230 3230 3231 3232 3233 3234 3235 3236 3237 3238 3239 3240 3240 3241 3242 3243 3243 3244 3245
3169 3169 3170 3173 3175 3177 3179 3181 3182 3185 3188 3190 3192 3194 3195 3197 3198 3199 3200 3201 3202 3203 3205 3206 3207 3208 3210 3211 3212 3213 3214 3216 3217 3218 3220 3221 3222 3223 3224 3225 3225 3226 3227 3228 3229 3230 3231 3231 3233 3234 3235 3236 3237 3238 3238 3239 3240 3241 3242 3243 3243 3244 3245
3168 3169 3170 3173 3175 3176 3178 3180 3181 3184 3186 3189 3191 3192 3193 3195 3197 3198 3199 3200 3200 3202 3203 3204 3206 3207 3208 3210 3212 3213 3214 3215 3216 3217 3219 3220 3221 3222 3223 3224 3225 3226 3226 3227 3228 3229 3230 3231 3232 3233 3234 3235 3236 3237 3238 3239 3240 3241 3242 3243 3243 3244 3245
3166 3167 3168 3171 3174 3176 3177 3179 3181 3183 3185 3187 3189 3191 3192 3193 3195 3197 3197 3198 3199 3200 3202 3203 3204 3206 3208 3209 3211 3212 3213 3214 3216 3217 3218 3219 3220 3221 3223 3223 3224 3225 3226 3227 3227 3228 3229 3230 3231 3232 3233 3234 3235 3236 3237 3238 3239 3240 3242 3242 3243 3244 3245
3164 3165 3166 3167 3171 3173 3176 3178 3180 3182 3183 3185 3187 3189 3190 3192 3193 3194 3196 3197 3198 3199 3200 3202 3203 3205 3207 3209 3210 3211 3213 3214 3215 3216 3217 3218 3219 3220 3222 3223 3224 3224 3225 3226 3227 3228 3229 3230 3231 3232 3233 3234 3234 3235 3237 3238 3239 3240 3241 3242 3243 3244 3244
3163 3165 3165 3166 3168 3170 3174 3177 3179 3181 3182 3183 3185 3186 3188 3189 3190 3192 3193 3195 3196 3197 3199 3201 3202 3204 3205 3207 3209 3211 3212 3213 3214 3215 3216 3217 3218 3219 3221 3222 3223 3224 3224 3225 3226 3227 3228 3229 3230 3231 3232 3233 3234 3235 3236 3237 3238 3239 3241 3242 3243 3243 3244
3163 3164 3165 3166 3166 3168 3171 3174 3178 3181 3182 3182 3183 3184 3185 3187 3188 3189 3191 3193 3194 3196 3197 3199 3200 3202 3204 3206 3207 3209 3211 3212 3213 3215 3216 3217 3218 3219 3220 3221 3222 3223 3224 3225 3226 3226 3227 3228 3229 3230 3231 3232 3233 3234 3235 3236 3238 3239 3240 3241 3242 3243 3244
3163 3163 3163 3164 3165 3167 3170 3173 3175 3178 3180 3180 3182 3183 3184 3185 3186 3188 3189 3191 3193 3195 3196 3197 3199 3201 3203 3205 3206 3207 3209 3211 3212 3214 3215 3216 3218 3219 3220 3221 3221 3222 3223 3224 3225 3225 3226 3227 3228 3229 3230 3231 3233 3234 3235 3236 3237 3238 3239 3240 3241 3243 3243
3162 3163 3163 3164 3164 3166 3168 3171 3173 3175 3176 3178 3180 3181 3182 3182 3183 3184 3186 3188 3191 3193 3194 3196 3198 3199 3201 3203 3204 3205 3207 3208 3210 3212 3214 3216 3217 3218 3220 3220 3221 3221 3222 3223 3224 3224 3225 3226 3227 3228 3229 3231 3232 3233 3234 3235 3236 3237 3238 3239 3241 3242 3243
3162 3163 3163 3164 3164 3165 3166 3169 3171 3172 3174 3176 3177 3178 3179 3179 3179 3180 3182 3185 3188 3190 3191 3193 3195 3197 3199 3201 3202 3204 3205 3206 3208 3210 3212 3214 3217 3218 3219 3220 3220 3221 3221 3222 3223 3224 3224 3225 3226 3227 3228 3230 3231 3232 3233 3234 3235 3236 3237 3238 3239 3241 3242
3163 3162 3163 3163 3164 3164 3165 3167 3168 3170 3172 3173 3175 3176 3177 3178 3178 3178 3179 3182 3185 3187 3189 3190 3192 3194 3197 3199 3201 3202 3203 3204 3205 3206 3208 3211 3214 3218 3219 3219 3220 3221 3221 3222 3223 3223 3224 3224 3225 3226 3227 3229 3230 3231 3232 3233 3234 3235 3236 3238 3238 3239 3241
3163 3162 3162 3163 3164 3164 3165 3166 3167 3168 3170 3171 3173 3174 3176 3177 3179 3181 3181 3182 3184 3185 3187 3188 3189 3192 3196 3198 3199 3201 3202 3202 3203 3205 3208 3210 3211 3213 3217 3218 3220 3221 3221 3221 3222 3223 3224 3224 3224 3225 3226 3228 3229 3230 3231 3232 3233 3234 3236 3237 3238 3239 3240
3163 3162 3162 3163 3164 3164 3165 3166 3166 3167 3168 3170 3172 3173 3174 3177 3179 3182 3184 3185 3184 3184 3186 3188 3188 3190 3193 3195 3196 3198 3199 3201 3203 3205 3208 3210 3209 3210 3212 3214 3216 3219 3221 3222 3221 3221 3222 3224 3224 3224 3225 3226 3228 3229 3230 3231 3232 3233 3235 3236 3237 3238 3239
3162 3162 3163 3163 3164 3165 3165 3166 3167 3167 3168 3169 3170 3172 3173 3175 3177 3180 3183 3184 3183 3183 3185 3186 3187 3189 3191 3192 3194 3196 3198 3199 3202 3204 3204 3204 3205 3208 3211 3211 3210 3211 3216 3220 3222 3222 3222 3222 3223 3224 3225 3225 3226 3228 3229 3230 3231 3232 3234 3235 3236 3237 3238
3162 3162 3163 3163 3164 3165 3165 3166 3167 3168 3168 3169 3169 3171 3173 3174 3175 3177 3180 3182 3182 3182 3183 3184 3185 3187 3188 3189 3191 3195 3196 3197 3200 3201 3200 3198 3200 3204 3210 3213 3212 3209 3208 3210 3214 3218 3221 3222 3222 3223 3224 3224 3225 3225 3227 3229 3230 3231 3232 3234 3235 3236 3236
3161 3162 3163 3163 3164 3165 3165 3166 3167 3167 3168 3169 3169 3170 3172 3173 3174 3176 3178 3180 3180 3181 3182 3183 3184 3185 3186 3186 3189 3191 3193 3194 3195 3196 3197 3198 3201 3203 3206 3210 3213 3213 3212 3209 3208 3209 3214 3218 3220 3221 3223 3223 3224 3224 3225 3226 3228 3229 3230 3231 3233 3234 3234
3160 3161 3162 3163 3164 3165 3166 3166 3167 3167 3168 3169 3169 3170 3171 3172 3173 3174 3176 3177 3178 3179 3180 3182 3183 3184 3184 3185 3186 3187 3188 3190 3191 3192 3193 3196 3201 3202 3203 3206 3209 3212 3214 3215 3214 3213 3214 3215 3216 3218 3219 3220 3221 3222 3223 3223 3224 3226 3227 3228 3229 3231 3232
3159 3160 3161 3162 3163 3164 3165 3166 3167 3167 3168 3168 3169 3169 3170 3171 3172 3173 3174 3175 3176 3177 3178 3179 3181 3182 3183 3183 3183 3184 3185 3186 3188 3189 3190 3193 3196 3198 3200 3203 3205 3207 3209 3211 3213 3215 3214 3214 3214 3214 3215 3216 3217 3217 3219 3220 3220 3220 3222 3224 3226 3227 3228
3158 3159 3160 3161 3162 3163 3164 3165 3166 3167 3167 3168 3168 3169 3170 3170 3171 3172 3173 3174 3174 3175 3176 3177 3178 3179 3180 3181 3181 3181 3182 3183 3185 3186 3188 3190 3193 3195 3197 3199 3201 3203 3204 3206 3207 3208 3209 3211 3211 3212 3212 3213 3213 3214 3215 3217 3217 3217 3218 3220 3222 3223 3225
3157 3158 3159 3160 3161 3163 3164 3165 3165 3166 3167 3167 3168 3168 3169 3169 3170 3171 3172 3172 3173 3174 3175 3176 3176 3177 3178 3178 3179 3179 3179 3180 3182 3183 3185 3188 3189 3191 3193 3195 3197 3198 3200 3202 3203 3205 3207 3208 3209 3209 3210 3210 3210 3211 3212 3214 3216 3217 3217 3218 3219 3220 3221
3155 3157 3158 3159 3160 3162 3163 3163 3164 3165 3165 3166 3167 3167 3168 3168 3169 3170 3170 3171 3172 3173 3173 3174 3175 3175 3176 3176 3177 3177 3177 3178 3179 3181 3183 3185 3186 3188 3189 3191 3193 3195 3196 3197 3197 3199 3201 3203 3205 3206 3207 3208 3208 3208 3209 3211 3212 3213 3214 3215 3216 3217 3219
3152 3154 3156 3157 3158 3160 3161 3161 3162 3163 3163 3164 3165 3165 3166 3167 3167 3168 3169 3169 3170 3171 3172 3172 3173 3173 3174 3174 3175 3175 3175 3176 3177 3179 3180 3181 3182 3184 3187 3188 3190 3191 3193 3193 3193 3193 3195 3197 3199 3201 3202 3204 3204 3205 3206 3207 3208 3209 3210 3211 3212 3213 3214
3151 3152 3153 3154 3156 3158 3159 3159 3160 3161 3161 3162 3163 3163 3164 3165 3166 3166 3167 3167 3168 3169 3170 3171 3171 3172 3172 3173 3173 3173 3174 3174 3175 3177 3178 3178 3179 3181 3183 3184 3186 3188 3189 3190 3190 3190 3192 3194 3195 3196 3198 3200 3201 3202 3203 3203 3204 3205 3206 3207 3208 3208 3209
3148 3149 3150 3151 3153 3154 3155 3156 3158 3158 3158 3159 3160 3161 3161 3163 3164 3164 3164 3165 3166 3166 3167 3168 3169 3169 3170 3171 3171 3171 3172 3172 3173 3174 3175 3176 3177 3178 3179 3180 3181 3183 3185 3187 3188 3189 3191 3192 3192 3193 3194 3195 3197 3198 3199 3199 3201 3202 3202 3203 3204 3204 3205
3145 3146 3148 3150 3150 3150 3151 3153 3155 3155 3155 3156 3157 3158 3159 3160 3161 3161 3162 3162 3163 3163 3165 3166 3166 3167 3167 3168 3168 3169 3169 3169 3170 3171 3172 3174 3174 3175 3176 3177 3178 3179 3180 3183 3185 3187 3188 3190 3190 3190 3191 3192 3193 3193 3194 3196 3197 3198 3198 3199 3199 3200 3200
3142 3144 3146 3147 3147 3148 3149 3150 3151 3152 3152 3153 3154 3155 3156 3157 3157 3158 3159 3159 3160 3160 3161 3162 3163 3164 3164 3165 3165 3166 3166 3166 3167 3168 3169 3170 3171 3172 3173 3174 3175 3176 3176 3178 3180 3182 3185 3187 3188 3188 3188 3188 3189 3189 3190 3192 3193 3194 3194 3195 3195 3196 3196
3141 3143 3144 3144 3144 3145 3147 3148 3148 3149 3149 3150 3150 3151 3152 3153 3154 3155 3155 3156 3157 3157 3158 3158 3159 3160 3161 3162 3162 3162 3163 3163 3163 3164 3165 3167 3167 3168 3170 3171 3172 3173 3173 3174 3175 3177 3179 3181 3182 3183 3184 3184 3185 3185 3186 3187 3187 3189 3190 3190 3191 3192 3192
3140 3141 3141 3141 3142 3143 3144 3146 3146 3146 3146 3147 3147 3148 3148 3149 3150 3151 3151 3152 3153 3154 3154 3154 3155 3156 3157 3158 3158 3159 3159 3160 3160 3160 3161 3163 3163 3164 3166 3168 3169 3170 3171 3171 3172 3173 3174 3175 3176 3178 3178 3179 3179 3180 3181 3181 3182 3183 3184 3185 3186 3187 3188
3139 3139 3139 3139 3139 3140 3141 3143 3143 3144 3144 3144 3144 3145 3145 3146 3146 3147 3148 3148 3149 3150 3150 3150 3151 3152 3153 3154 3154 3155 3155 3156 3156 3157 3158 3159 3160 3161 3162 3164 3165 3167 3168 3168 3169 3170 3170 3171 3172 3172 3173 3173 3173 3174 3175 3176 3177 3178 3179 3181 3182 3183 3184
3137 3137 3136 3136 3136 3136 3137 3138 3139 3140 3141 3141 3142 3142 3142 3143 3143 3143 3144 3144 3145 3145 3146 3146 3147 3147 3148 3149 3150 3151 3152 3152 3152 3152 3154 3155 3156 3157 3158 3160 3161 3163 3164 3165 3166 3166 3166 3167 3167 3168 3168 3168 3168 3168 3169 3171 3172 3174 3175 3176 3177 3179 3180
3134 3134 3134 3134 3133 3133 3133 3133 3134 3136 3137 3138 3139 3139 3139 3139 3140 3140 3140 3140 3141 3141 3142 3142 3143 3143 3143 3144 3145 3147 3148 3148 3147 3148 3150 3151 3152 3153 3154 3156 3157 3159 3160 3161 3161 3162 3163 3163 3163 3163 3163 3163 3163 3164 3164 3165 3167 3169 3170 3171 3172 3173 3174
3132 3132 3132 3132 3131 3130 3130 3130 3130 3131 3133 3134 3135 3136 3136 3136 3136 3136 3136 3136 3137 3137 3138 3138 3139 3139 3139 3139 3140 3141 3143 3143 3143 3144 3146 3147 3148 3149 3150 3152 3153 3154 3156 3156 3157 3158 3159 3160 3159 3159 3159 3159 3159 3159 3160 3161 3162 3163 3164 3166 3167 3168 3168
3130 3130 3130 3129 3129 3129 3128 3128 3128 3128 3129 3130 3131 3132 3133 3133 3133 3133 3133 3133 3133 3133 3133 3134 3134 3135 3135 3135 3135 3136 3137 3137 3138 3140 3141 3142 3143 3144 3145 3147 3148 3150 3151 3152 3152 3153 3154 3155 3156 3155 3155 3155 3155 3155 3155 3156 3156 3157 3158 3159 3161 3162 3163
3126 3127 3127 3127 3127 3127 3126 3126 3126 3126 3126 3126 3127 3128 3129 3129 3129 3130 3130 3130 3129 3129 3130 3130 3130 3131 3131 3131 3130 3130 3130 3132 3134 3135 3136 3137 3137 3138 3140 3142 3144 3145 3146 3147 3148 3148 3149 3150 3151 3151 3151 3151 3151 3151 3151 3151 3151 3152 3152 3154 3155 3157 3158
3122 3123 3124 3124 3124 3124 3124 3124 3124 3123 3123 3123 3123 3123 3124 3125 3125 3126 3126 3126 3126 3126 3126 3126 3126 3126 3126 3126 3126 3126 3126 3127 3129 3130 3131 3132 3132 3133 3134 3136 3138 3140 3141 3142 3143 3144 3144 3144 3145 3145 3146 3146 3147 3147 3147 3147 3146 3147 3148 3149 3150 3151 3152